Weather History for Crookston, MN

Change the Weather History Date:

Wednesday, January 16, 2013

  Actual Average Record
Temperature  
Mean Temperature 12 °F -  
Max Temperature 30 °F 11 °F 32 °F (1999)
Min Temperature -5 °F 0 °F -27 °F (2005)
Degree Days  
Heating Degree Days 52    
Moisture  
Dew Point 2 °F    
Average Humidity 80    
Maximum Humidity 93    
Minimum Humidity 65    
Precipitation  
Precipitation 0.00 in - - ()
Sea Level Pressure  
Sea Level Pressure 29.96 in    
Wind  
Wind Speed 18 mph (NNW)    
Max Wind Speed 31 mph    
Max Gust Speed 37 mph    
Visibility 8 miles    
Events Snow    
Averages and records for this station are not official NWS values.
T = Trace of Precipitation, MM = Missing Value Source: NWS Daily Summary

Daily Weather History Graph

Daily Weather History Graph

Search for Another Location

Airport:

Trip Planner

Search our weather history database for the weather conditions in past years. The results will help you decide how hot, cold, wet, or windy it might be!

Date:

Astronomy

Jan. 16, 2013 Rise Set
Actual Time 8:09 AM CST 5:03 PM CST
Civil Twilight 7:35 AM CST 5:38 PM CST
Nautical Twilight 6:56 AM CST 6:16 PM CST
Astronomical Twilight 6:19 AM CST 6:53 PM CST
Moon 10:18 AM CST (1/16) 11:26 PM CST (1/16)
Length of Visible Light 10h 03m
Length of Day
8h 53m
Waxing Crescent, 28% of the Moon is Illuminated
Jan 16
Waxing Crescent
Jan 18
First Quarter
Jan 26
Full
Feb 3
Last Quarter
Feb 10
New

Hourly Weather History & Observations

Time (CST) Temp. Windchill Dew Point Humidity Pressure Visibility Wind Dir Wind Speed Gust Speed Precip Events Conditions
12:15 AM 24.8 °F 11.5 °F 21.2 °F 86% 29.49 in 10.0 mi SW 17.3 mph - N/A   Overcast
12:34 AM 24.8 °F 13.4 °F 23.0 °F 93% 29.49 in 10.0 mi SW 12.7 mph - N/A   Overcast
12:54 AM 26.6 °F 18.2 °F 24.8 °F 93% 29.50 in 10.0 mi SW 8.1 mph - N/A   Overcast
1:14 AM 30.2 °F 20.2 °F 28.4 °F 93% 29.53 in 10.0 mi NNW 12.7 mph 25.3 mph N/A   Overcast
1:34 AM 28.4 °F 13.3 °F 26.6 °F 93% 29.54 in 4.0 mi North 27.6 mph 33.4 mph N/A   Overcast
1:55 AM 26.6 °F 10.6 °F 24.8 °F 93% 29.55 in 5.0 mi North 28.8 mph 34.5 mph N/A   Overcast
2:14 AM 24.8 °F 8.4 °F 21.2 °F 86% 29.58 in 4.0 mi North 27.6 mph 32.2 mph N/A   Overcast
2:34 AM 24.8 °F 8.7 °F 21.2 °F 86% 29.60 in 5.0 mi North 26.5 mph 29.9 mph N/A   Overcast
2:55 AM 21.2 °F 3.3 °F 19.4 °F 93% 29.62 in 3.0 mi North 28.8 mph 35.7 mph N/A   Overcast
3:14 AM 19.4 °F 0.2 °F 17.6 °F 93% 29.63 in 2.5 mi North 31.1 mph 36.8 mph N/A   Overcast
3:34 AM 19.4 °F 0.8 °F 17.6 °F 93% 29.65 in 2.5 mi North 28.8 mph 35.7 mph N/A   Mostly Cloudy
3:55 AM 17.6 °F -0.6 °F 15.8 °F 93% 29.66 in 3.0 mi North 25.3 mph 31.1 mph N/A   Overcast
4:14 AM 17.6 °F -0.6 °F 15.8 °F 93% 29.66 in 4.0 mi North 25.3 mph 29.9 mph N/A   Overcast
4:35 AM 15.8 °F -1.5 °F 14.0 °F 93% 29.68 in 5.0 mi North 20.7 mph - N/A   Overcast
4:55 AM 15.8 °F -0.2 °F 12.2 °F 86% 29.69 in 7.0 mi NNW 17.3 mph - N/A   Overcast
5:14 AM 15.8 °F -1.5 °F 12.2 °F 86% 29.70 in 7.0 mi NNW 20.7 mph - N/A   Overcast
5:35 AM 15.8 °F -2.3 °F 12.2 °F 86% 29.70 in 7.0 mi North 23.0 mph - N/A   Overcast
5:55 AM 14.0 °F -4.3 °F 10.4 °F 86% 29.71 in 7.0 mi North 21.9 mph 27.6 mph N/A   Overcast
6:35 AM 14.0 °F -2.5 °F 10.4 °F 86% 29.72 in 7.0 mi North 17.3 mph - N/A Snow Light Snow
6:55 AM 12.2 °F -5.3 °F 10.4 °F 92% 29.74 in 10.0 mi North 18.4 mph - N/A   Scattered Clouds
7:14 AM 12.2 °F -3.7 °F 10.4 °F 92% 29.75 in 10.0 mi North 15.0 mph - N/A Snow Light Snow
7:35 AM 12.2 °F -5.8 °F 8.6 °F 85% 29.77 in 10.0 mi North 19.6 mph - N/A   Scattered Clouds
7:55 AM 12.2 °F -5.8 °F 8.6 °F 85% 29.79 in 10.0 mi North 19.6 mph - N/A   Mostly Cloudy
8:14 AM 10.4 °F -7.2 °F 6.8 °F 85% 29.81 in 10.0 mi North 17.3 mph - N/A   Scattered Clouds
8:35 AM 10.4 °F -7.2 °F 6.8 °F 85% 29.83 in 10.0 mi North 17.3 mph - N/A   Clear
8:55 AM 10.4 °F -8.2 °F 6.8 °F 85% 29.84 in 10.0 mi North 19.6 mph 24.2 mph N/A   Mostly Cloudy
9:14 AM 8.6 °F -9.5 °F 5.0 °F 85% 29.86 in 10.0 mi North 17.3 mph - N/A   Scattered Clouds
9:35 AM 8.6 °F -8.9 °F 3.2 °F 79% 29.88 in 10.0 mi North 16.1 mph 19.6 mph N/A   Scattered Clouds
9:55 AM 8.6 °F -10.5 °F 3.2 °F 79% 29.89 in 10.0 mi North 19.6 mph - N/A   Mostly Cloudy
10:14 AM 6.8 °F -13.4 °F 1.4 °F 79% 29.90 in 7.0 mi North 20.7 mph - N/A   Scattered Clouds
10:35 AM 6.8 °F -13.4 °F 1.4 °F 79% 29.92 in 10.0 mi North 20.7 mph - N/A   Scattered Clouds
10:55 AM 5.0 °F -15.2 °F -0.4 °F 78% 29.95 in 10.0 mi North 19.6 mph - N/A   Clear
11:14 AM 5.0 °F -16.2 °F -0.4 °F 78% 29.95 in 10.0 mi North 21.9 mph - N/A   Clear
11:35 AM 5.0 °F -16.2 °F -0.4 °F 78% 29.97 in 7.0 mi North 21.9 mph 25.3 mph N/A   Clear
11:55 AM 3.2 °F -18.6 °F -2.2 °F 78% 29.99 in 5.0 mi North 21.9 mph - N/A   Haze
12:14 PM 3.2 °F -19.0 °F -2.2 °F 78% 30.01 in 7.0 mi North 23.0 mph - N/A   Clear
12:35 PM 3.2 °F -18.1 °F -2.2 °F 78% 30.02 in 5.0 mi NNW 20.7 mph - N/A   Haze
12:55 PM 3.2 °F -16.5 °F -2.2 °F 78% 30.03 in 10.0 mi North 17.3 mph - N/A   Clear
1:14 PM 1.4 °F -19.9 °F -4.0 °F 78% 30.04 in 7.0 mi North 19.6 mph - N/A   Clear
1:34 PM 1.4 °F -19.4 °F -4.0 °F 78% 30.05 in 7.0 mi North 18.4 mph - N/A   Clear
2:14 PM 1.4 °F -19.4 °F -5.8 °F 72% 30.07 in 10.0 mi North 18.4 mph - N/A   Clear
2:34 PM 1.4 °F -19.4 °F -5.8 °F 72% 30.09 in 10.0 mi North 18.4 mph - N/A   Clear
2:55 PM 1.4 °F -18.2 °F -5.8 °F 72% 30.11 in 10.0 mi North 16.1 mph - N/A   Clear
3:14 PM -0.4 °F -21.7 °F -5.8 °F 78% 30.13 in 10.0 mi North 18.4 mph - N/A   Clear
3:34 PM 1.4 °F -18.2 °F -5.8 °F 72% 30.13 in 10.0 mi North 16.1 mph - N/A   Mostly Cloudy
3:55 PM -0.4 °F -21.2 °F -7.6 °F 72% 30.15 in 10.0 mi North 17.3 mph - N/A   Scattered Clouds
4:14 PM -0.4 °F -22.3 °F -7.6 °F 72% 30.18 in 10.0 mi North 19.6 mph - N/A   Clear
4:35 PM -2.2 °F -24.1 °F -9.4 °F 71% 30.20 in 10.0 mi North 18.4 mph - N/A   Clear
4:55 PM -2.2 °F -23.5 °F -9.4 °F 71% 30.20 in 10.0 mi North 17.3 mph - N/A   Clear
5:14 PM -4.0 °F -25.2 °F -11.2 °F 71% 30.22 in 10.0 mi North 16.1 mph - N/A   Clear
5:55 PM -5.8 °F -26.8 °F -11.2 °F 77% 30.22 in 10.0 mi North 15.0 mph - N/A   Scattered Clouds
6:14 PM -5.8 °F -23.4 °F -11.2 °F 77% 30.24 in 10.0 mi NNW 10.4 mph - N/A   Clear
6:35 PM -5.8 °F -24.4 °F -11.2 °F 77% 30.23 in 10.0 mi North 11.5 mph - N/A   Scattered Clouds
6:55 PM -5.8 °F -25.2 °F -11.2 °F 77% 30.23 in 10.0 mi North 12.7 mph - N/A   Mostly Cloudy
7:14 PM -5.8 °F -24.4 °F -11.2 °F 77% 30.24 in 10.0 mi North 11.5 mph - N/A   Scattered Clouds
7:35 PM -5.8 °F -22.4 °F -11.2 °F 77% 30.24 in 10.0 mi North 9.2 mph - N/A   Scattered Clouds
7:55 PM -5.8 °F -22.4 °F -11.2 °F 77% 30.25 in 10.0 mi North 9.2 mph - N/A   Overcast
8:14 PM -5.8 °F -22.4 °F -11.2 °F 77% 30.26 in 10.0 mi NNW 9.2 mph - N/A   Overcast
8:55 PM -4.0 °F -23.0 °F -11.2 °F 71% 30.29 in 10.0 mi NNW 12.7 mph - N/A   Overcast
9:14 PM -4.0 °F -21.2 °F -11.2 °F 71% 30.30 in 10.0 mi NNW 10.4 mph - N/A   Overcast
9:35 PM -4.0 °F -22.1 °F -11.2 °F 71% 30.31 in 7.0 mi NW 11.5 mph - N/A Snow Light Snow
9:54 PM -4.0 °F -20.2 °F -11.2 °F 71% 30.31 in 7.0 mi NNW 9.2 mph - N/A   Overcast
10:14 PM -4.0 °F -20.2 °F -11.2 °F 71% 30.31 in 10.0 mi NNW 9.2 mph - N/A   Overcast
10:35 PM -4.0 °F -19.0 °F -11.2 °F 71% 30.31 in 10.0 mi NW 8.1 mph - N/A   Overcast
10:54 PM -4.0 °F -17.8 °F -11.2 °F 71% 30.31 in 10.0 mi NNW 6.9 mph - N/A   Overcast
11:14 PM -4.0 °F -12.4 °F -13.0 °F 65% 30.30 in 10.0 mi NNW 3.5 mph - N/A   Overcast
11:35 PM -4.0 °F -12.4 °F -13.0 °F 65% 30.30 in 10.0 mi North 3.5 mph - N/A   Overcast
11:54 PM -2.2 °F - -11.2 °F 66% 30.29 in 10.0 mi Calm Calm - N/A   Overcast